Miscellaneous Local Product
Issued by NWS North Platte, NE

Home | Current Version | Previous Version | Graphics & Text | Print | Product List | Glossary On
Versions: 1 2 3 4 5 6 7 8 9 10 11 12 13 14 15 16 17 18 19 20 21 22 23 24 25 26 27 28 29 30 31 32 33 34 35 36 37 38 39 40 41 42 43 44 45 46 47 48 49 50
000
AXUS43 KLBF 020010
MISLBF


WESTERN AND NORTH CENTRAL NEBRASKA HOURLY WEATHER ROUNDUP
NATIONAL WEATHER SERVICE NORTH PLATTE NE
600 PM CST SUN MAR 01 2015

***STATIONS NOT REPORTING VARIABLES SUCH AS SKY/WEATHER OR
PRESSURE ARE PROVIDED BY THE NEBRASKA DEPARTMENT OF
ROADS...RAWS...AND APRS NETWORKS...AND ARE NOT UNDER
NATIONAL WEATHER SERVICE QUALITY CONTROL***

...OBSERVATIONS IN AND NEAR THE EASTERN PANHANDLE OF NEBRASKA...

CITY           SKY/WX    TMP DP  RH WIND       PRES   REMARKS
PINE RIDGE     CLEAR     31   7  36 NE8       30.26R WCI  23
CHADRON        CLEAR     32   7  35 NW12      30.27S WCI  23
ALLIANCE       CLEAR     33   8  35 N7        30.24S WCI  27
SIDNEY         CLEAR     32  12  43 N3        30.25S
WHITECLAY        N/A     30   3  31 W7          N/A  WCI  23
LISCO            N/A     36   5  27 SW5         N/A  WCI  32
BIG SPRINGS      N/A     37  15  41 CALM        N/A
LEWELLEN         N/A     37   4  25 CALM        N/A
$$

...OBSERVATIONS IN NORTH CENTRAL NEBRASKA...

CITY           SKY/WX    TMP DP  RH WIND       PRES   REMARKS
VALENTINE      CLEAR     32   6  33 N13G21    30.31S WCI  22
THEDFORD       CLEAR     34  10  37 N5        30.30R WCI  30
AINSWORTH      CLEAR     31   6  34 N9        30.31S WCI  23
O`NEILL        PTCLDY    33   7  32 NW12      30.34R WCI  25
ORD            CLEAR     34   9  35 N9        30.32S WCI  27
BROKEN BOW     CLEAR     37  11  34 N9        30.30S WCI  30
BROWNLEE         N/A     30   3  31 N10         N/A  WCI  21
SPRINGVIEW       N/A     32   9  37 NW5G12      N/A  WCI  27
BREWSTER         N/A     35   8  32 W9          N/A  WCI  28
ROSE             N/A     36  16  43 S3          N/A
NEWPORT          N/A     34  11  38 W7          N/A  WCI  28
SARGENT          N/A     37  13  38 MISG        N/A
COMSTOCK         N/A     38  12  34 N3          N/A
CHAMBERS         N/A     33   8  35 MISG        N/A
EWING            N/A     33  13  43 NW5         N/A  WCI  28
$$

...OBSERVATIONS IN SOUTHWEST NEBRASKA AND FAR NORTHEAST COLORADO...

CITY           SKY/WX    TMP DP  RH WIND       PRES   REMARKS
WRAY           FAIR      35  14  43 NE6       30.28R WCI  30
IMPERIAL         N/A     36  13  38 N5        30.28F WCI  32
OGALLALA       CLEAR     35  11  37 N3        30.28S
NORTH PLATTE   CLEAR     37  10  32 NW9       30.29S WCI  30
MCCOOK         CLOUDY    38  10  31 NE5       30.31R WCI  34
LEXINGTON      PTCLDY    37  12  35 N5        30.32R WCI  34
PAXTON           N/A     37  16  42 NW6         N/A  WCI  32
BRADY            N/A     39  13  34 CALM        N/A
GOTHENBURG       N/A     37  11  34 N3          N/A
CALLAWAY         N/A     36  13  38 N7          N/A  WCI  30
$$

...NORTH PLATTE AREA...

CITY           SKY/WX    TMP DP  RH WIND       PRES   REMARKS
AIRPORT        CLEAR     37  10  32 NW9       30.29S WCI  30
DOWNTOWN         N/A     37  11  34 N5          N/A  WCI  33
$$

...SOME WEATHER OBSERVATIONS FROM AROUND THE REGION...

CITY           SKY/WX    TMP DP  RH WIND       PRES   REMARKS
DENVER         CLOUDY    23  15  71 CALM      30.21F
LARAMIE        MOCLDY    19  12  74 SW6       30.09S WCI  11
CHEYENNE       MOCLDY    22  13  68 SW3       30.16F
SCOTTSBLUFF    PTCLDY    33  10  38 SW6       30.24F WCI  28
RAPID CITY     CLEAR     24  12  60 N16       30.26R WCI  11
PIERRE         MOCLDY    31   9  39 NW13      30.33R WCI  21
WINNER         FAIR      33   4  29 NW16      30.34R WCI  23
SIOUX FALLS    PTCLDY    27  15  61 NW13      30.34R WCI  16
OMAHA          PTCLDY    35  17  47 NW9       30.36R WCI  28
GRAND ISLAND   CLEAR     36  13  38 N9        30.34R WCI  29
KANSAS CITY    MOCLDY    31  21  66 NW6       30.39R WCI  25
WICHITA        PTCLDY    31  19  61 N9        30.38S WCI  23
HAYS           MOCLDY    32  14  47 SW5       30.36R WCI  27
LIBERAL        CLOUDY    28  21  74 N8        30.34R WCI  20
GOODLAND       MOCLDY    32  17  54 NE7       30.27S WCI  26
$$



USA.gov is the U.S. government's official web portal to all federal, state and local government web resources and services.